Bozeman, MT

3:47 AM MDT on March 23, 2017 (GMT -0600)
Gallatin

Weather History for KBZN - October, 2011

Change the Weather History Date:

Saturday, October 29, 2011

  Actual Average Record
Temperature  
Mean Temperature 38 °F 41 °F  
Max Temperature 54 °F 55 °F 77 °F (1968)
Min Temperature 22 °F 27 °F -2 °F (1971)
Degree Days  
Heating Degree Days 27 24  
Month to date heating degree days 543 543  
Since 1 July heating degree days 739 848  
Cooling Degree Days 0 0  
Month to date cooling degree days 2 0  
Year to date cooling degree days 200 368  
Moisture  
Dew Point 21 °F    
Average Humidity 49    
Maximum Humidity 81    
Minimum Humidity 16    
Precipitation  
Precipitation 0.00 in 0.03 in 0.42 in (1978)
Month to date precipitation 0.83 1.04  
Year to date precipitation 10.18 12.65  
Snow  
Snow 0.00 in 0.10 in 2.00 in (1978)
Month to date snowfall 1.7  
Since 1 July snowfall 2.0  
Since 1 September snowfall 2.0  
Snow Depth -    
Sea Level Pressure  
Sea Level Pressure 30.03 in    
Wind  
Wind Speed 12 mph (WSW)    
Max Wind Speed 28 mph    
Max Gust Speed 33 mph    
Visibility 10 miles    
Events      
T = Trace of Precipitation, MM = Missing Value Source: NWS Daily Summary

Daily Weather History Graph

Daily Weather History Graph

Search for Another Location

Airport or City:

Trip Planner

Search our weather history database for the weather conditions in past years. The results will help you decide how hot, cold, wet, or windy it might be!

Date:

Astronomy

Oct. 29, 2011 Rise Set
Actual Time 8:00 AM MDT 6:15 PM MDT
Civil Twilight 7:29 AM MDT 6:46 PM MDT
Nautical Twilight 6:54 AM MDT 7:21 PM MDT
Astronomical Twilight 6:19 AM MDT 7:56 PM MDT
Moon 11:36 AM MDT (10/29) 8:32 PM MDT (10/29)
Length of Visible Light 11h 17m
Length of Day
10h 15m
Waxing Crescent, 12% of the Moon is Illuminated
Oct 29
Waxing Crescent
Nov 2
First Quarter
Nov 10
Full
Nov 18
Last Quarter
Nov 24
New

Hourly Weather History & Observations

Time (MDT) Temp. Windchill Dew Point Humidity Pressure Visibility Wind Dir Wind Speed Gust Speed Precip Events Conditions
12:56 AM 46.4 °F 41.5 °F 14.0 °F 27% 29.89 in 10.0 mi SSW 10.4 mph - N/A   Partly Cloudy
1:56 AM 53.1 °F - 8.1 °F 16% 29.89 in 10.0 mi SW 13.8 mph - N/A   Overcast
2:56 AM 52.0 °F - 12.0 °F 20% 29.87 in 10.0 mi SW 17.3 mph 26.5 mph N/A   Mostly Cloudy
3:56 AM 51.1 °F - 14.0 °F 23% 29.86 in 10.0 mi SW 16.1 mph 21.9 mph N/A   Overcast
4:56 AM 51.1 °F - 16.0 °F 25% 29.88 in 10.0 mi SW 10.4 mph - N/A   Overcast
5:56 AM 48.9 °F - 19.0 °F 31% 29.91 in 10.0 mi West 5.8 mph - N/A   Overcast
6:56 AM 48.9 °F - 19.0 °F 31% 29.93 in 10.0 mi WSW 9.2 mph - N/A   Overcast
7:56 AM 48.9 °F - 19.0 °F 31% 29.94 in 10.0 mi WSW 12.7 mph - N/A   Mostly Cloudy
8:56 AM 48.9 °F - 19.9 °F 32% 29.96 in 10.0 mi WSW 12.7 mph - N/A   Overcast
9:56 AM 51.1 °F - 21.9 °F 32% 29.97 in 10.0 mi WNW 18.4 mph 31.1 mph N/A   Overcast
10:56 AM 48.9 °F - 28.0 °F 44% 30.03 in 10.0 mi NNW 16.1 mph - N/A   Overcast
11:56 AM 48.0 °F - 33.1 °F 56% 30.06 in 10.0 mi NNW 16.1 mph 25.3 mph N/A   Overcast
12:56 PM 51.1 °F - 28.0 °F 41% 30.06 in 10.0 mi NW 20.7 mph 27.6 mph N/A   Mostly Cloudy
1:56 PM 50.0 °F - 24.1 °F 36% 30.05 in 10.0 mi NW 17.3 mph 25.3 mph N/A   Mostly Cloudy
2:56 PM 54.0 °F - 24.1 °F 31% 30.05 in 10.0 mi WNW 15.0 mph - N/A   Scattered Clouds
3:56 PM 51.1 °F - 24.1 °F 35% 30.07 in 10.0 mi NNW 16.1 mph - N/A   Partly Cloudy
4:56 PM 48.0 °F - 23.0 °F 37% 30.09 in 10.0 mi NNW 12.7 mph - N/A   Clear
5:56 PM 46.0 °F 40.2 °F 23.0 °F 40% 30.12 in 10.0 mi WNW 12.7 mph - N/A   Clear
6:56 PM 39.9 °F 36.7 °F 21.9 °F 49% 30.17 in 10.0 mi South 4.6 mph - N/A   Clear
7:56 PM 39.9 °F - 21.9 °F 49% 30.17 in 10.0 mi Calm Calm - N/A   Clear
8:56 PM 34.0 °F 26.0 °F 23.0 °F 64% 30.20 in 10.0 mi SSE 10.4 mph - N/A   Clear
9:56 PM 30.9 °F 22.8 °F 23.0 °F 72% 30.20 in 10.0 mi South 9.2 mph - N/A   Clear
10:56 PM 28.0 °F 22.8 °F 21.9 °F 78% 30.22 in 10.0 mi South 4.6 mph - N/A   Clear
11:56 PM 23.0 °F 14.7 °F 18.0 °F 81% 30.25 in 10.0 mi SE 6.9 mph - N/A   Clear